Location: Bannatyne
(13.0833°N, 59.5333°W)
Time: 03:44:59
(UTC+00:00)

Vanguard 3 - Pass Details

Date: 24 January 2020
Orbit: 508 x 3263 km, 33.3° (Epoch: 16 February)

Event Time Altitude Azimuth Distance (km) Brightness Sun altitude
Rises 21:05:46 0° 256° (WSW) 6,621 13.8 10.4°
Reaches altitude 10° 21:10:02 10° 261° (W) 5,839 13.6 9.5°
Maximum altitude 21:28:51 55° 335° (NNW) 3,667 10.6 5.2°
Drops below altitude 10° 21:46:17 10° 50° (NE) 5,415 10.8 1.2°
Sets 21:50:06 0° 55° (NE) 6,132 11.0 0.4°
